When you browse on this site, cookies collect data to enhance your experience and personalize the content and advertising you see.
Visit our Privacy Policy to learn more. By continuing to use the site, you agree to this use of cookies and data.
  • In Hungary
  • List of Countries
  • For 7 days
  • Water Temperature
  • Satellite Maps
  • Weather Map
  • News
  • Weather Widgets
  • user-avatar
    Login

    Hourly Weather Limba

    Today, 21 November, Wednesday

    Time Temperature Precipitation Wind Pressure Humidity
    00:00 +20°C° 0 mm 2 mps 659 mmHg 82%
    01:00 +20°C° 0 mm 2 mps 659 mmHg 83%
    02:00 +20°C° 0 mm 2 mps 659 mmHg 84%
    03:00 +20°C° 0 mm 2 mps 659 mmHg 85%
    04:00 +19°C° 0 mm 2 mps 659 mmHg 85%
    05:00 +19°C° 0 mm 2 mps 659 mmHg 86%
    06:00 +21°C° 0 mm 3 mps 660 mmHg 78%
    07:00 +24°C° 0 mm 3 mps 660 mmHg 70%
    08:00 +26°C° 0 mm 4 mps 661 mmHg 61%
    09:00 +27°C° 0 mm 4 mps 661 mmHg 56%
    10:00 +29°C° 0 mm 3 mps 661 mmHg 50%
    11:00 +31°C° 0 mm 3 mps 661 mmHg 45%
    12:00 +31°C° 0.1 mm 3 mps 660 mmHg 43%
    13:00 +31°C° 0.1 mm 2 mps 660 mmHg 42%
    14:00 +31°C° 0.1 mm 2 mps 659 mmHg 41%
    15:00 +31°C° 0 mm 2 mps 659 mmHg 43%
    16:00 +30°C° 0 mm 2 mps 658 mmHg 45%
    17:00 +30°C° 0 mm 2 mps 658 mmHg 47%
    18:00 +28°C° 0 mm 3 mps 658 mmHg 53%
    19:00 +27°C° 0 mm 3 mps 659 mmHg 58%
    20:00 +25°C° 0 mm 3 mps 659 mmHg 63%
    21:00 +25°C° 0 mm 3 mps 659 mmHg 65%
    22:00 +24°C° 0 mm 2 mps 659 mmHg 68%
    23:00 +24°C° 0 mm 2 mps 659 mmHg 70%

    Tomorrow, 22 November, Thursday

    Time Temperature Precipitation Wind Pressure Humidity
    00:00 +23°C° 0 mm 2 mps 659 mmHg 71%
    01:00 +23°C° 0 mm 2 mps 658 mmHg 72%
    02:00 +23°C° 0 mm 2 mps 658 mmHg 73%
    03:00 +23°C° 0 mm 2 mps 658 mmHg 74%
    04:00 +21°C° 0 mm 2 mps 658 mmHg 74%
    05:00 +21°C° 0 mm 2 mps 658 mmHg 75%
    06:00 +24°C° 0 mm 3 mps 659 mmHg 68%
    07:00 +26°C° 0 mm 4 mps 660 mmHg 60%
    08:00 +28°C° 0 mm 4 mps 660 mmHg 53%
    09:00 +29°C° 0 mm 4 mps 660 mmHg 48%
    10:00 +31°C° 0 mm 3 mps 661 mmHg 43%
    11:00 +33°C° 0 mm 3 mps 661 mmHg 38%
    12:00 +34°C° 0 mm 3 mps 660 mmHg 37%
    13:00 +34°C° 0 mm 3 mps 659 mmHg 35%
    14:00 +34°C° 0 mm 2 mps 659 mmHg 34%
    15:00 +32°C° 0 mm 2 mps 658 mmHg 36%
    16:00 +31°C° 0 mm 2 mps 658 mmHg 39%
    17:00 +31°C° 0 mm 2 mps 658 mmHg 41%
    18:00 +29°C° 0 mm 3 mps 658 mmHg 46%
    19:00 +28°C° 0 mm 3 mps 658 mmHg 51%
    20:00 +26°C° 0 mm 3 mps 658 mmHg 56%
    21:00 +25°C° 0.1 mm 3 mps 659 mmHg 59%
    22:00 +25°C° 0.1 mm 2 mps 659 mmHg 62%
    23:00 +24°C° 0.1 mm 2 mps 659 mmHg 65%

    Day after tomorrow, 23 November, Friday

    Time Temperature Precipitation Wind Pressure Humidity
    00:00 +24°C° 0 mm 2 mps 659 mmHg 66%
    01:00 +23°C° 0 mm 2 mps 659 mmHg 68%
    02:00 +23°C° 0 mm 2 mps 658 mmHg 69%
    03:00 +23°C° 0 mm 1 mps 659 mmHg 71%
    04:00 +23°C° 0 mm 1 mps 659 mmHg 72%
    05:00 +22°C° 0 mm 1 mps 659 mmHg 73%
    06:00 +24°C° 0.1 mm 1 mps 660 mmHg 66%
    07:00 +26°C° 0.1 mm 1 mps 661 mmHg 60%
    08:00 +28°C° 0.1 mm 2 mps 662 mmHg 53%
    09:00 +29°C° 0.4 mm 2 mps 662 mmHg 49%
    10:00 +31°C° 0.4 mm 2 mps 662 mmHg 45%
    11:00 +32°C° 0.4 mm 2 mps 662 mmHg 40%
    12:00 +32°C° 0 mm 1 mps 661 mmHg 41%
    13:00 +31°C° 0 mm 1 mps 661 mmHg 41%
    14:00 +31°C° 0 mm 1 mps 660 mmHg 41%
    15:00 +30°C° 0 mm 2 mps 659 mmHg 41%
    16:00 +30°C° 0 mm 2 mps 659 mmHg 42%
    17:00 +30°C° 0 mm 2 mps 659 mmHg 43%
    18:00 +28°C° 0 mm 2 mps 659 mmHg 47%
    19:00 +27°C° 0 mm 2 mps 660 mmHg 52%
    20:00 +25°C° 0 mm 2 mps 660 mmHg 56%
    21:00 +25°C° 0 mm 1 mps 660 mmHg 58%
    22:00 +25°C° 0 mm 1 mps 660 mmHg 60%
    23:00 +24°C° 0 mm 1 mps 661 mmHg 63%

    24 November, Saturday

    Time Temperature Precipitation Wind Pressure Humidity
    00:00 +24°C° 0.2 mm 1 mps 660 mmHg 66%
    01:00 +23°C° 0.2 mm 1 mps 660 mmHg 69%
    02:00 +23°C° 0.2 mm 1 mps 659 mmHg 72%
    03:00 +22°C° 0.9 mm 1 mps 660 mmHg 75%
    04:00 +22°C° 0.9 mm 1 mps 660 mmHg 77%
    05:00 +22°C° 0.9 mm 1 mps 660 mmHg 79%
    06:00 +23°C° 0.7 mm 2 mps 661 mmHg 76%
    07:00 +23°C° 0.7 mm 2 mps 661 mmHg 73%
    08:00 +24°C° 0.7 mm 3 mps 662 mmHg 70%
    09:00 +26°C° 1 mm 3 mps 662 mmHg 65%
    10:00 +27°C° 1 mm 3 mps 662 mmHg 60%
    11:00 +28°C° 1 mm 3 mps 662 mmHg 55%
    12:00 +28°C° 0.9 mm 3 mps 661 mmHg 54%
    13:00 +28°C° 0.9 mm 2 mps 661 mmHg 53%
    14:00 +29°C° 0.9 mm 2 mps 660 mmHg 52%
    15:00 +28°C° 0.4 mm 2 mps 660 mmHg 55%
    16:00 +27°C° 0.4 mm 2 mps 660 mmHg 59%
    17:00 +26°C° 0.4 mm 2 mps 660 mmHg 62%
    18:00 +25°C° 0.1 mm 2 mps 660 mmHg 65%
    19:00 +24°C° 0.1 mm 2 mps 661 mmHg 68%
    20:00 +24°C° 0.1 mm 2 mps 661 mmHg 71%
    21:00 +23°C° 0 mm 1 mps 661 mmHg 72%
    22:00 +23°C° 0 mm 1 mps 661 mmHg 72%
    23:00 +23°C° 0 mm 1 mps 660 mmHg 73%

    25 November, Sunday

    Time Temperature Precipitation Wind Pressure Humidity
    00:00 +22°C° 0 mm 1 mps 660 mmHg 75%
    01:00 +22°C° 0 mm 1 mps 659 mmHg 76%
    02:00 +22°C° 0 mm 1 mps 659 mmHg 77%
    03:00 +21°C° 0 mm 1 mps 659 mmHg 78%
    04:00 +21°C° 0 mm 1 mps 660 mmHg 78%
    05:00 +21°C° 0 mm 1 mps 660 mmHg 79%
    06:00 +23°C° 0 mm 2 mps 661 mmHg 73%
    07:00 +24°C° 0 mm 2 mps 661 mmHg 68%
    08:00 +26°C° 0 mm 3 mps 662 mmHg 62%
    09:00 +27°C° 0.1 mm 3 mps 662 mmHg 56%
    10:00 +29°C° 0.1 mm 3 mps 662 mmHg 51%
    11:00 +30°C° 0.1 mm 3 mps 662 mmHg 45%
    12:00 +30°C° 0.2 mm 3 mps 661 mmHg 45%
    13:00 +30°C° 0.2 mm 2 mps 661 mmHg 45%
    14:00 +30°C° 0.2 mm 2 mps 660 mmHg 45%
    15:00 +29°C° 0.5 mm 2 mps 660 mmHg 50%
    16:00 +28°C° 0.5 mm 2 mps 659 mmHg 54%
    17:00 +27°C° 0.5 mm 2 mps 659 mmHg 59%
    18:00 +26°C° 0.6 mm 2 mps 659 mmHg 62%
    19:00 +25°C° 0.6 mm 1 mps 660 mmHg 66%
    20:00 +24°C° 0.6 mm 1 mps 660 mmHg 70%
    21:00 +24°C° 0.2 mm 1 mps 660 mmHg 71%
    22:00 +23°C° 0.2 mm 1 mps 660 mmHg 73%
    23:00 +23°C° 0.2 mm 1 mps 660 mmHg 74%

    26 November, Monday

    Time Temperature Precipitation Wind Pressure Humidity
    00:00 +23°C° 0.1 mm 1 mps 659 mmHg 75%
    01:00 +22°C° 0.1 mm 1 mps 659 mmHg 75%
    02:00 +22°C° 0.1 mm 1 mps 658 mmHg 76%
    03:00 +22°C° 0 mm 1 mps 659 mmHg 77%
    04:00 +22°C° 0 mm 1 mps 659 mmHg 78%
    05:00 +21°C° 0 mm 1 mps 659 mmHg 78%
    06:00 +21°C° 0.1 mm 2 mps 659 mmHg 75%
    07:00 +23°C° 0.1 mm 2 mps 660 mmHg 71%
    08:00 +24°C° 0.1 mm 3 mps 661 mmHg 68%
    09:00 +25°C° 0.2 mm 3 mps 660 mmHg 64%
    10:00 +26°C° 0.2 mm 3 mps 660 mmHg 60%
    11:00 +28°C° 0.2 mm 2 mps 660 mmHg 57%
    12:00 +28°C° 0.1 mm 2 mps 660 mmHg 54%
    13:00 +29°C° 0.1 mm 2 mps 659 mmHg 51%
    14:00 +29°C° 0.1 mm 2 mps 659 mmHg 48%
    15:00 +28°C° 0.1 mm 2 mps 659 mmHg 52%
    16:00 +27°C° 0.1 mm 2 mps 658 mmHg 56%
    17:00 +27°C° 0.1 mm 2 mps 658 mmHg 60%
    18:00 +26°C° 0 mm 2 mps 658 mmHg 63%
    19:00 +25°C° 0 mm 1 mps 658 mmHg 67%
    20:00 +24°C° 0 mm 1 mps 659 mmHg 70%
    21:00 +23°C° 0 mm 1 mps 659 mmHg 71%
    22:00 +23°C° 0 mm 1 mps 658 mmHg 72%
    23:00 +23°C° 0 mm 1 mps 658 mmHg 73%
    Show more